Tracking 20083 objects as of 12-Dec-2019
HD Live streaming from Space Station
objects crossing your sky now

USA 82

Track USA 82 now!
USA 82 is classified as:


NORAD ID: 22009
Int'l Code: 1992-037A
Perigee: 36,158.0 km
Apogee: 36,259.0 km
Inclination: 12.6 °
Period: 1,457.3 minutes
Semi major axis: 42579 km
RCS: Unknown
Launch date: July 2, 1992
Source: United States (US)
Launch site: AIR FORCE EASTERN TEST RANGE (AFETR)

Super High Frequency (SHF) for U.S. government and military; sophisticated survivability enhancement; worldwide, longhaul coverage; X-band.
aabbcc
Your satellite tracking list
Your tracking list is empty




NASA's NSSDC Master Catalog

Two Line Element Set (TLE):
1 22009U 92037A   19345.20248160  .00000041  00000-0  00000+0 0  9993
2 22009  12.6352  26.4088 0011865 328.3216  31.5909  0.98810198  1617
Source of the keplerian elements: McCants